
10:23:36 PM 611 Monday, June 22, 2020  Message :- Start Log.....!!!

windowsName : Windows 10 Home
version : 6.3
build : 19041
Product ID : 1814
64 Bit operating system? : Yes
===========================================Start==========================================
Caption : Intel64 Family 6 Model 142 Stepping 9
CreationClassName : Win32_Processor
CurrentClockSpeed : 2600
CurrentVoltage : 8
Manufacturer : GenuineIntel
MaxClockSpeed : 2701
Name : Intel(R) Core(TM) i5-7200U CPU @ 2.50GHz
NumberOfCores : 2
NumberOfLogicalProcessors : 4
PowerManagementSupported : False
Status : OK
=========================================END============================================

12:00:13 3 19 August 2020  Message :- Save call Start

12:00:13 707 19 August 2020  Message :- Zip Start AD

12:00:13 925 19 August 2020  Message :- Zip End

12:00:40 49 19 August 2020  Message :- Save call Start

12:00:40 654 19 August 2020  Message :- Zip Start AD

12:00:40 742 19 August 2020  Message :- Zip End

12:00:42 191 19 August 2020  Message :- get Download paramenter 1st time

12:00:42 643 19 August 2020  Message :- start vishal task

12:00:43 757 19 August 2020  Message :- end vishal task

12:00:43 784 19 August 2020  Message :- first time download

12:00:43 790 19 August 2020  Message :-  Done version

12:00:43 795 19 August 2020  Message :-  start Port

12:00:43 821 19 August 2020  Message :-  Got Port

12:00:43 827 19 August 2020  Message :- start opening port

12:00:43 833 19 August 2020  Message :- port open 

12:00:43 838 19 August 2020  Message :- Done ctor, start event instialize

12:00:43 843 19 August 2020  Message :-  open call

12:00:43 860 19 August 2020  Message :- close hota open kela done 

12:00:43 866 19 August 2020  Message :-  open call end ,  start Port Done in PP3 class

12:00:43 896 19 August 2020  Message :-  sent 1st

12:00:44 104 19 August 2020  Message :-  Got 1

12:00:44 232 19 August 2020  Message :-  started sending Application

12:00:44 323 19 August 2020  Message :- 2nd response 221

12:00:44 575 19 August 2020  Message :- Project response 221 Completed :) 

12:00:44 621 19 August 2020  Message :- port Exist and it is Closed

12:00:44 627 19 August 2020  Message :- End 100%

12:12:15 883 19 August 2020  Message :- Save call Start

12:12:16 561 19 August 2020  Message :- Zip Start AD

12:12:16 672 19 August 2020  Message :- Zip End

12:12:18 118 19 August 2020  Message :- get Download paramenter 1st time

12:12:18 550 19 August 2020  Message :- start vishal task

12:12:19 301 19 August 2020  Message :- end vishal task

12:12:19 329 19 August 2020  Message :- first time download

12:12:19 334 19 August 2020  Message :-  Done version

12:12:19 339 19 August 2020  Message :-  start Port

12:12:19 359 19 August 2020  Message :-  Got Port

12:12:19 364 19 August 2020  Message :- start opening port

12:12:19 369 19 August 2020  Message :- port open 

12:12:19 374 19 August 2020  Message :- Done ctor, start event instialize

12:12:19 379 19 August 2020  Message :-  open call

12:12:19 393 19 August 2020  Message :- close hota open kela done 

12:12:19 398 19 August 2020  Message :-  open call end ,  start Port Done in PP3 class

12:12:19 431 19 August 2020  Message :-  sent 1st

12:12:19 652 19 August 2020  Message :-  Got 1

12:12:19 827 19 August 2020  Message :- Start 0%

12:12:19 845 19 August 2020  Message :- Zip file code started.

12:12:19 862 19 August 2020  Message :- 1st response 221

12:12:19 934 19 August 2020  Message :- 2nd response 221

12:12:20 210 19 August 2020  Message :- Project response 221 Completed :) 

12:12:20 284 19 August 2020  Message :- port Exist and it is Closed

12:12:20 289 19 August 2020  Message :- End 100%

12:17:57 984 19 August 2020  Message :- Save call Start

12:17:58 561 19 August 2020  Message :- Zip Start AD

12:17:58 642 19 August 2020  Message :- Zip End

12:17:59 904 19 August 2020  Message :- get Download paramenter 1st time

12:18:00 349 19 August 2020  Message :- start vishal task

12:18:01 222 19 August 2020  Message :- end vishal task

12:18:01 250 19 August 2020  Message :- first time download

12:18:01 256 19 August 2020  Message :-  Done version

12:18:01 261 19 August 2020  Message :-  start Port

12:18:01 281 19 August 2020  Message :-  Got Port

12:18:01 286 19 August 2020  Message :- start opening port

12:18:01 291 19 August 2020  Message :- port open 

12:18:01 296 19 August 2020  Message :- Done ctor, start event instialize

12:18:01 302 19 August 2020  Message :-  open call

12:18:01 313 19 August 2020  Message :- close hota open kela done 

12:18:01 319 19 August 2020  Message :-  open call end ,  start Port Done in PP3 class

12:18:01 349 19 August 2020  Message :-  sent 1st

12:18:01 568 19 August 2020  Message :-  Got 1

12:18:01 740 19 August 2020  Message :- Start 0%

12:18:01 760 19 August 2020  Message :- Zip file code started.

12:18:01 774 19 August 2020  Message :- 1st response 221

12:18:01 839 19 August 2020  Message :- 2nd response 221

12:18:02 106 19 August 2020  Message :- Project response 221 Completed :) 

12:18:02 157 19 August 2020  Message :- port Exist and it is Closed

12:18:02 163 19 August 2020  Message :- End 100%

12:20:26 308 19 August 2020  Message :- Save call Start

12:20:27 49 19 August 2020  Message :- Zip Start AD

12:20:27 137 19 August 2020  Message :- Zip End

12:20:29 152 19 August 2020  Message :- get Download paramenter 1st time

12:20:29 594 19 August 2020  Message :- start vishal task

12:20:30 446 19 August 2020  Message :- end vishal task

12:20:30 482 19 August 2020  Message :- first time download

12:20:30 487 19 August 2020  Message :-  Done version

12:20:30 493 19 August 2020  Message :-  start Port

12:20:30 515 19 August 2020  Message :-  Got Port

12:20:30 520 19 August 2020  Message :- start opening port

12:20:30 527 19 August 2020  Message :- port open 

12:20:30 532 19 August 2020  Message :- Done ctor, start event instialize

12:20:30 537 19 August 2020  Message :-  open call

12:20:30 553 19 August 2020  Message :- close hota open kela done 

12:20:30 560 19 August 2020  Message :-  open call end ,  start Port Done in PP3 class

12:20:30 606 19 August 2020  Message :-  sent 1st

12:20:30 819 19 August 2020  Message :-  Got 1

12:20:30 992 19 August 2020  Message :-  started sending Application

12:20:31 68 19 August 2020  Message :- 2nd response 221

12:20:31 441 19 August 2020  Message :- Project response 221 Completed :) 

12:20:31 497 19 August 2020  Message :- port Exist and it is Closed

12:20:31 502 19 August 2020  Message :- End 100%

12:29:45 818 19 August 2020  Message :- start opening port

12:29:45 825 19 August 2020  Message :- port open 

12:29:45 837 19 August 2020  Message :- close hota open kela done 

12:29:45 844 19 August 2020  Message :- port Exist and it is Closed

12:34:18 523 19 August 2020  Message :- Save call Start

12:34:19 269 19 August 2020  Message :- Zip Start AD

12:34:19 372 19 August 2020  Message :- Zip End

12:34:20 680 19 August 2020  Message :- get Download paramenter 1st time

12:34:21 114 19 August 2020  Message :- start vishal task

12:34:21 849 19 August 2020  Message :- end vishal task

12:34:21 878 19 August 2020  Message :- first time download

12:34:21 883 19 August 2020  Message :-  Done version

12:34:21 889 19 August 2020  Message :-  start Port

12:34:21 909 19 August 2020  Message :-  Got Port

12:34:21 914 19 August 2020  Message :- start opening port

12:34:21 920 19 August 2020  Message :- port open 

12:34:21 925 19 August 2020  Message :- Done ctor, start event instialize

12:34:21 930 19 August 2020  Message :-  open call

12:34:21 942 19 August 2020  Message :- close hota open kela done 

12:34:21 948 19 August 2020  Message :-  open call end ,  start Port Done in PP3 class

12:34:21 981 19 August 2020  Message :-  sent 1st

12:34:22 186 19 August 2020  Message :-  Got 1

12:34:22 330 19 August 2020  Message :- Start 0%

12:34:22 349 19 August 2020  Message :- Zip file code started.

12:34:22 368 19 August 2020  Message :- 1st response 221

12:34:22 454 19 August 2020  Message :- 2nd response 221

12:34:22 732 19 August 2020  Message :- Project response 221 Completed :) 

12:34:22 805 19 August 2020  Message :- port Exist and it is Closed

12:34:22 815 19 August 2020  Message :- End 100%

12:35:12 349 19 August 2020  Message :- Save call Start

12:35:12 933 19 August 2020  Message :- Zip Start AD

12:35:13 23 19 August 2020  Message :- Zip End

12:35:15 113 19 August 2020  Message :- get Download paramenter 1st time

12:35:15 540 19 August 2020  Message :- start vishal task

12:35:15 607 19 August 2020  Message :- end vishal task

12:35:15 700 19 August 2020  Message :- first time download

12:35:15 706 19 August 2020  Message :-  Done version

12:35:15 713 19 August 2020  Message :-  start Port

12:35:15 739 19 August 2020  Message :-  Got Port

12:35:15 746 19 August 2020  Message :- start opening port

12:35:15 752 19 August 2020  Message :- port open 

12:35:15 757 19 August 2020  Message :- Done ctor, start event instialize

12:35:15 762 19 August 2020  Message :-  open call

12:35:15 772 19 August 2020  Message :- close hota open kela done 

12:35:15 779 19 August 2020  Message :-  open call end ,  start Port Done in PP3 class

12:35:15 818 19 August 2020  Message :-  sent 1st

12:35:16 28 19 August 2020  Message :-  Got 1

12:35:16 169 19 August 2020  Message :-  started sending Runtime

12:35:16 177 19 August 2020  Message :- Start sending File No :0

12:35:16 183 19 August 2020  Message :- Done File No :0

12:35:16 190 19 August 2020  Message :- Project.tar.bz2 or App.tar.bz2 file sending starts.

12:35:16 196 19 August 2020  Message :- 1st response 221

12:35:16 210 19 August 2020  Message :- Start sending File No :1

12:35:22 470 19 August 2020  Message :- Done File No :1

12:35:22 520 19 August 2020  Message :- Done both file..

12:35:23 765 19 August 2020  Message :- Runtime response 221 Completed :) 

12:35:23 833 19 August 2020  Message :- port Exist and it is Closed

13:12:37 323 19 August 2020  Message :- Save call Start

13:12:37 998 19 August 2020  Message :- Zip Start AD

13:12:38 91 19 August 2020  Message :- Zip End

13:12:39 853 19 August 2020  Message :- get Download paramenter 1st time

13:12:40 275 19 August 2020  Message :- start vishal task

13:12:41 49 19 August 2020  Message :- end vishal task

13:12:41 80 19 August 2020  Message :- first time download

13:12:41 85 19 August 2020  Message :-  Done version

13:12:41 90 19 August 2020  Message :-  start Port

13:12:41 111 19 August 2020  Message :-  Got Port

13:12:41 116 19 August 2020  Message :- start opening port

13:12:41 121 19 August 2020  Message :- port open 

13:12:41 126 19 August 2020  Message :- Done ctor, start event instialize

13:12:41 131 19 August 2020  Message :-  open call

13:12:41 144 19 August 2020  Message :- close hota open kela done 

13:12:41 150 19 August 2020  Message :-  open call end ,  start Port Done in PP3 class

13:12:41 201 19 August 2020  Message :-  sent 1st

13:12:41 409 19 August 2020  Message :-  Got 1

13:12:41 582 19 August 2020  Message :-  started sending Application

13:12:41 660 19 August 2020  Message :- 2nd response 221

13:12:41 922 19 August 2020  Message :- Project response 221 Completed :) 

13:12:41 998 19 August 2020  Message :- port Exist and it is Closed

13:12:42 4 19 August 2020  Message :- End 100%

13:12:53 364 19 August 2020  Message :- get Download paramenter second time 

13:12:53 394 19 August 2020  Message :- second time download

13:12:53 400 19 August 2020  Message :-  Done version

13:12:53 405 19 August 2020  Message :-  start Port

13:12:53 425 19 August 2020  Message :-  Got Port

13:12:53 430 19 August 2020  Message :- start opening port

13:12:53 436 19 August 2020  Message :- port open 

13:12:53 441 19 August 2020  Message :- Done ctor, start event instialize

13:12:53 448 19 August 2020  Message :-  open call

13:12:53 458 19 August 2020  Message :- close hota open kela done 

13:12:53 464 19 August 2020  Message :-  open call end ,  start Port Done in PP3 class

13:12:53 498 19 August 2020  Message :-  sent 1st

13:12:53 711 19 August 2020  Message :-  Got 1

13:12:53 886 19 August 2020  Message :-  started sending Runtime

13:13:00 181 19 August 2020  Message :- Done File No :1

13:13:00 242 19 August 2020  Message :- Done both file..

13:13:01 492 19 August 2020  Message :- Runtime response 221 Completed :) 

13:13:01 553 19 August 2020  Message :- port Exist and it is Closed

13:16:38 247 19 August 2020  Message :- Save call Start

13:16:38 885 19 August 2020  Message :- Zip Start AD

13:16:38 974 19 August 2020  Message :- Zip End

13:16:40 206 19 August 2020  Message :- get Download paramenter 1st time

13:16:40 631 19 August 2020  Message :- start vishal task

13:16:41 390 19 August 2020  Message :- end vishal task

13:16:41 422 19 August 2020  Message :- first time download

13:16:41 427 19 August 2020  Message :-  Done version

13:16:41 432 19 August 2020  Message :-  start Port

13:16:41 453 19 August 2020  Message :-  Got Port

13:16:41 459 19 August 2020  Message :- start opening port

13:16:41 464 19 August 2020  Message :- port open 

13:16:41 469 19 August 2020  Message :- Done ctor, start event instialize

13:16:41 474 19 August 2020  Message :-  open call

13:16:41 487 19 August 2020  Message :- close hota open kela done 

13:16:41 493 19 August 2020  Message :-  open call end ,  start Port Done in PP3 class

13:16:41 536 19 August 2020  Message :-  sent 1st

13:16:41 748 19 August 2020  Message :-  Got 1

13:16:41 905 19 August 2020  Message :-  started sending Application

13:16:41 982 19 August 2020  Message :- 2nd response 221

13:16:42 314 19 August 2020  Message :- Project response 221 Completed :) 

13:16:42 396 19 August 2020  Message :- port Exist and it is Closed

13:16:42 403 19 August 2020  Message :- End 100%

13:18:04 158 19 August 2020  Message :- Save call Start

13:18:04 776 19 August 2020  Message :- Zip Start AD

13:18:04 879 19 August 2020  Message :- Zip End

13:18:06 993 19 August 2020  Message :- get Download paramenter 1st time

13:18:07 422 19 August 2020  Message :- start vishal task

13:18:08 217 19 August 2020  Message :- end vishal task

13:18:08 250 19 August 2020  Message :- first time download

13:18:08 255 19 August 2020  Message :-  Done version

13:18:08 261 19 August 2020  Message :-  start Port

13:18:08 280 19 August 2020  Message :-  Got Port

13:18:08 285 19 August 2020  Message :- start opening port

13:18:08 291 19 August 2020  Message :- port open 

13:18:08 296 19 August 2020  Message :- Done ctor, start event instialize

13:18:08 302 19 August 2020  Message :-  open call

13:18:08 313 19 August 2020  Message :- close hota open kela done 

13:18:08 319 19 August 2020  Message :-  open call end ,  start Port Done in PP3 class

13:18:08 358 19 August 2020  Message :-  sent 1st

13:18:08 572 19 August 2020  Message :-  Got 1

13:18:08 748 19 August 2020  Message :-  started sending Application

13:18:08 825 19 August 2020  Message :- 2nd response 221

13:18:09 171 19 August 2020  Message :- Project response 221 Completed :) 

13:18:09 266 19 August 2020  Message :- port Exist and it is Closed

13:18:09 273 19 August 2020  Message :- End 100%

windowsName : Windows 10 Home
version : 6.3
build : 19041
Product ID : 1814
64 Bit operating system? : Yes
===========================================Start==========================================
Caption : Intel64 Family 6 Model 142 Stepping 9
CreationClassName : Win32_Processor
CurrentClockSpeed : 2600
CurrentVoltage : 8
Manufacturer : GenuineIntel
MaxClockSpeed : 2701
Name : Intel(R) Core(TM) i5-7200U CPU @ 2.50GHz
NumberOfCores : 2
NumberOfLogicalProcessors : 4
PowerManagementSupported : False
Status : OK
=========================================END============================================

16:28:28 102 19 August 2020  Message :- Save call Start

16:28:29 142 19 August 2020  Message :- Zip Start AD

16:28:29 249 19 August 2020  Message :- Zip End

16:28:30 875 19 August 2020  Message :- get Download paramenter 1st time

16:28:31 364 19 August 2020  Message :- start vishal task

16:28:32 484 19 August 2020  Message :- end vishal task

16:28:32 512 19 August 2020  Message :- first time download

16:28:32 518 19 August 2020  Message :-  Done version

16:28:32 524 19 August 2020  Message :-  start Port

16:28:32 545 19 August 2020  Message :-  Got Port

16:28:32 550 19 August 2020  Message :- start opening port

16:28:32 555 19 August 2020  Message :- port open 

16:28:32 561 19 August 2020  Message :- Done ctor, start event instialize

16:28:32 566 19 August 2020  Message :-  open call

16:28:32 579 19 August 2020  Message :- close hota open kela done 

16:28:32 585 19 August 2020  Message :-  open call end ,  start Port Done in PP3 class

16:28:32 615 19 August 2020  Message :-  sent 1st

16:28:32 825 19 August 2020  Message :-  Got 1

16:28:32 999 19 August 2020  Message :-  started sending Application

16:28:33 75 19 August 2020  Message :- 2nd response 221

16:28:33 420 19 August 2020  Message :- Project response 221 Completed :) 

16:28:33 491 19 August 2020  Message :- port Exist and it is Closed

16:28:33 501 19 August 2020  Message :- End 100%

16:29:16 69 19 August 2020  Message :- Save call Start

16:29:16 697 19 August 2020  Message :- Zip Start AD

16:29:16 806 19 August 2020  Message :- Zip End

16:29:18 393 19 August 2020  Message :- get Download paramenter 1st time

16:29:18 827 19 August 2020  Message :- start vishal task

16:29:19 612 19 August 2020  Message :- end vishal task

16:29:19 644 19 August 2020  Message :- first time download

16:29:19 650 19 August 2020  Message :-  Done version

16:29:19 655 19 August 2020  Message :-  start Port

16:29:19 674 19 August 2020  Message :-  Got Port

16:29:19 679 19 August 2020  Message :- start opening port

16:29:19 684 19 August 2020  Message :- port open 

16:29:19 689 19 August 2020  Message :- Done ctor, start event instialize

16:29:19 695 19 August 2020  Message :-  open call

16:29:19 705 19 August 2020  Message :- close hota open kela done 

16:29:19 711 19 August 2020  Message :-  open call end ,  start Port Done in PP3 class

16:29:19 746 19 August 2020  Message :-  sent 1st

16:29:19 959 19 August 2020  Message :-  Got 1

16:29:20 133 19 August 2020  Message :-  started sending Application

16:29:20 209 19 August 2020  Message :- 2nd response 221

16:29:20 500 19 August 2020  Message :- Project response 221 Completed :) 

16:29:20 594 19 August 2020  Message :- port Exist and it is Closed

16:29:20 602 19 August 2020  Message :- End 100%

16:30:02 950 19 August 2020  Message :- Save call Start

16:30:03 614 19 August 2020  Message :- Zip Start AD

16:30:03 710 19 August 2020  Message :- Zip End

16:30:04 877 19 August 2020  Message :- get Download paramenter 1st time

16:30:05 297 19 August 2020  Message :- start vishal task

16:30:06 87 19 August 2020  Message :- end vishal task

16:30:06 115 19 August 2020  Message :- first time download

16:30:06 120 19 August 2020  Message :-  Done version

16:30:06 126 19 August 2020  Message :-  start Port

16:30:06 146 19 August 2020  Message :-  Got Port

16:30:06 151 19 August 2020  Message :- start opening port

16:30:06 156 19 August 2020  Message :- port open 

16:30:06 161 19 August 2020  Message :- Done ctor, start event instialize

16:30:06 166 19 August 2020  Message :-  open call

16:30:06 177 19 August 2020  Message :- close hota open kela done 

16:30:06 183 19 August 2020  Message :-  open call end ,  start Port Done in PP3 class

16:30:06 213 19 August 2020  Message :-  sent 1st

16:30:06 423 19 August 2020  Message :-  Got 1

16:30:06 566 19 August 2020  Message :- Start 0%

16:30:06 588 19 August 2020  Message :- Zip file code started.

16:30:06 602 19 August 2020  Message :- 1st response 221

16:30:06 689 19 August 2020  Message :- 2nd response 221

16:30:07 22 19 August 2020  Message :- Project response 221 Completed :) 

16:30:07 82 19 August 2020  Message :- port Exist and it is Closed

16:30:07 88 19 August 2020  Message :- End 100%

16:30:36 626 19 August 2020  Message :- Save call Start

16:30:37 246 19 August 2020  Message :- Zip Start AD

16:30:37 336 19 August 2020  Message :- Zip End

16:30:38 604 19 August 2020  Message :- get Download paramenter 1st time

16:30:39 37 19 August 2020  Message :- start vishal task

16:30:39 865 19 August 2020  Message :- end vishal task

16:30:39 894 19 August 2020  Message :- first time download

16:30:39 898 19 August 2020  Message :-  Done version

16:30:39 904 19 August 2020  Message :-  start Port

16:30:39 922 19 August 2020  Message :-  Got Port

16:30:39 927 19 August 2020  Message :- start opening port

16:30:39 933 19 August 2020  Message :- port open 

16:30:39 938 19 August 2020  Message :- Done ctor, start event instialize

16:30:39 943 19 August 2020  Message :-  open call

16:30:39 954 19 August 2020  Message :- close hota open kela done 

16:30:39 959 19 August 2020  Message :-  open call end ,  start Port Done in PP3 class

16:30:39 990 19 August 2020  Message :-  sent 1st

16:30:40 200 19 August 2020  Message :-  Got 1

16:30:40 344 19 August 2020  Message :-  started sending Application

16:30:40 420 19 August 2020  Message :- 2nd response 221

16:30:40 706 19 August 2020  Message :- Project response 221 Completed :) 

16:30:40 768 19 August 2020  Message :- port Exist and it is Closed

16:30:40 777 19 August 2020  Message :- End 100%

16:31:11 834 19 August 2020  Message :- start opening port

16:31:11 843 19 August 2020  Message :- port open 

16:31:11 856 19 August 2020  Message :- close hota open kela done 

16:31:11 862 19 August 2020  Message :- port Exist and it is Closed

16:31:21 35 19 August 2020  Message :- Save call Start

16:31:21 644 19 August 2020  Message :- Zip Start AD

16:31:21 737 19 August 2020  Message :- Zip End

16:31:22 942 19 August 2020  Message :- get Download paramenter 1st time

16:31:23 372 19 August 2020  Message :- start vishal task

16:31:24 216 19 August 2020  Message :- end vishal task

16:31:24 245 19 August 2020  Message :- first time download

16:31:24 250 19 August 2020  Message :-  Done version

16:31:24 256 19 August 2020  Message :-  start Port

16:31:24 275 19 August 2020  Message :-  Got Port

16:31:24 280 19 August 2020  Message :- start opening port

16:31:24 285 19 August 2020  Message :- port open 

16:31:24 291 19 August 2020  Message :- Done ctor, start event instialize

16:31:24 296 19 August 2020  Message :-  open call

16:31:24 307 19 August 2020  Message :- close hota open kela done 

16:31:24 313 19 August 2020  Message :-  open call end ,  start Port Done in PP3 class

16:31:24 345 19 August 2020  Message :-  sent 1st

16:31:24 555 19 August 2020  Message :-  Got 1

16:31:24 699 19 August 2020  Message :- Start 0%

16:31:24 718 19 August 2020  Message :- Zip file code started.

16:31:24 732 19 August 2020  Message :- 1st response 221

16:31:24 807 19 August 2020  Message :- 2nd response 221

16:31:25 134 19 August 2020  Message :- Project response 221 Completed :) 

16:31:25 191 19 August 2020  Message :- port Exist and it is Closed

16:31:25 197 19 August 2020  Message :- End 100%

16:31:54 836 19 August 2020  Message :- Save call Start

16:31:55 478 19 August 2020  Message :- Zip Start AD

16:31:55 571 19 August 2020  Message :- Zip End

16:31:56 838 19 August 2020  Message :- get Download paramenter 1st time

16:31:57 268 19 August 2020  Message :- start vishal task

16:31:58 71 19 August 2020  Message :- end vishal task

16:31:58 100 19 August 2020  Message :- first time download

16:31:58 112 19 August 2020  Message :-  Done version

16:31:58 163 19 August 2020  Message :-  start Port

16:31:58 206 19 August 2020  Message :-  Got Port

16:31:58 216 19 August 2020  Message :- start opening port

16:31:58 228 19 August 2020  Message :- port open 

16:31:58 242 19 August 2020  Message :- Done ctor, start event instialize

16:31:58 264 19 August 2020  Message :-  open call

16:31:58 280 19 August 2020  Message :- close hota open kela done 

16:31:58 289 19 August 2020  Message :-  open call end ,  start Port Done in PP3 class

16:31:58 353 19 August 2020  Message :-  sent 1st

16:31:58 570 19 August 2020  Message :-  Got 1

16:31:58 744 19 August 2020  Message :- Start 0%

16:31:58 756 19 August 2020  Message :- Zip file code started.

16:31:58 765 19 August 2020  Message :- 1st response 221

16:31:58 834 19 August 2020  Message :- 2nd response 221

16:31:59 171 19 August 2020  Message :- Project response 221 Completed :) 

16:31:59 219 19 August 2020  Message :- port Exist and it is Closed

16:31:59 229 19 August 2020  Message :- End 100%

16:32:59 427 19 August 2020  Message :- Save call Start

16:33:00 45 19 August 2020  Message :- Zip Start AD

16:33:00 126 19 August 2020  Message :- Zip End

16:33:01 521 19 August 2020  Message :- get Download paramenter 1st time

16:33:01 946 19 August 2020  Message :- start vishal task

16:33:02 705 19 August 2020  Message :- end vishal task

16:33:02 733 19 August 2020  Message :- first time download

16:33:02 739 19 August 2020  Message :-  Done version

16:33:02 744 19 August 2020  Message :-  start Port

16:33:02 762 19 August 2020  Message :-  Got Port

16:33:02 768 19 August 2020  Message :- start opening port

16:33:02 773 19 August 2020  Message :- port open 

16:33:02 778 19 August 2020  Message :- Done ctor, start event instialize

16:33:02 783 19 August 2020  Message :-  open call

16:33:02 794 19 August 2020  Message :- close hota open kela done 

16:33:02 799 19 August 2020  Message :-  open call end ,  start Port Done in PP3 class

16:33:02 837 19 August 2020  Message :-  sent 1st

16:33:03 54 19 August 2020  Message :-  Got 1

16:33:03 243 19 August 2020  Message :-  started sending Application

16:33:03 327 19 August 2020  Message :- 2nd response 221

16:33:03 625 19 August 2020  Message :- Project response 221 Completed :) 

16:33:03 702 19 August 2020  Message :- port Exist and it is Closed

16:33:03 707 19 August 2020  Message :- End 100%

windowsName : Windows 10 Home
version : 6.3
build : 19042
Product ID : 1814
64 Bit operating system? : Yes
===========================================Start==========================================
Caption : Intel64 Family 6 Model 142 Stepping 9
CreationClassName : Win32_Processor
CurrentClockSpeed : 2900
CurrentVoltage : 8
Manufacturer : GenuineIntel
MaxClockSpeed : 2901
Name : Intel(R) Core(TM) i7-7500U CPU @ 2.70GHz
NumberOfCores : 2
NumberOfLogicalProcessors : 4
PowerManagementSupported : False
Status : OK
=========================================END============================================

17:17:26 484 20 September 2021  Message :- start opening port

17:17:26 484 20 September 2021  Message :- port open 

17:17:26 489 20 September 2021  Message :- close hota open kela done 

17:17:26 491 20 September 2021  Message :- port Exist and it is Closed

17:17:34 73 20 September 2021  Message :- start opening port

17:17:34 74 20 September 2021  Message :- port open 

17:17:34 78 20 September 2021  Message :- close hota open kela done 

17:17:34 79 20 September 2021  Message :- port Exist and it is Closed

17:17:36 752 20 September 2021  Message :- Save call Start

17:17:37 244 20 September 2021  Message :- Zip Start AD

17:17:37 328 20 September 2021  Message :- Zip End

17:17:38 732 20 September 2021  Message :- get Download paramenter 1st time

17:17:39 266 20 September 2021  Message :- start vishal task

17:17:40 145 20 September 2021  Message :- end vishal task

17:17:40 165 20 September 2021  Message :- first time download

17:17:40 180 20 September 2021  Message :-  Done version

17:17:40 180 20 September 2021  Message :-  start Port

17:17:40 180 20 September 2021  Message :-  Got Port

17:17:40 180 20 September 2021  Message :- start opening port

17:17:40 181 20 September 2021  Message :- port open 

17:17:40 181 20 September 2021  Message :- Done ctor, start event instialize

17:17:40 181 20 September 2021  Message :-  open call

17:17:40 186 20 September 2021  Message :- close hota open kela done 

17:17:40 187 20 September 2021  Message :-  open call end ,  start Port Done in PP3 class

17:17:40 211 20 September 2021  Message :-  sent 1st

17:17:40 419 20 September 2021  Message :-  Got 1

17:17:40 546 20 September 2021  Message :-  started sending Application

17:17:40 548 20 September 2021  Message :- Start 0%

17:17:40 550 20 September 2021  Message :- Zip file code started.

17:17:40 558 20 September 2021  Message :- 1st response 221

17:17:40 624 20 September 2021  Message :- 2nd response 221

17:17:40 946 20 September 2021  Message :- Project response 221 Completed :) 

17:17:41 32 20 September 2021  Message :- port Exist and it is Closed

17:17:41 32 20 September 2021  Message :- End 100%

17:18:06 177 20 September 2021  Message :- start opening port

17:18:06 177 20 September 2021  Message :- port open 

17:18:06 182 20 September 2021  Message :- close hota open kela done 

17:18:06 183 20 September 2021  Message :- port Exist and it is Closed
